Danbury, CT

5:17 PM EDT on June 27, 2017 (GMT -0400)
Danbury Municipal

Weather History for KDXR - May, 2013

Change the Weather History Date:

Thursday, May 16, 2013

  Actual Average Record
Temperature  
Mean Temperature 62 °F -  
Max Temperature 82 °F 69 °F 93 °F (1991)
Min Temperature 44 °F 47 °F 34 °F (1984)
Degree Days  
Heating Degree Days 2    
Growing Degree Days 12 (Base 50)    
Moisture  
Dew Point 43 °F    
Average Humidity 61    
Maximum Humidity 93    
Minimum Humidity 22    
Precipitation  
Precipitation 0.00 in - - ()
Sea Level Pressure  
Sea Level Pressure 29.76 in    
Wind  
Wind Speed 2 mph (West)    
Max Wind Speed 12 mph    
Max Gust Speed 24 mph    
Visibility 8 miles    
Events      
Averages and records for this station are not official NWS values.
T = Trace of Precipitation, MM = Missing Value Source: NWS Daily Summary

Daily Weather History Graph

Daily Weather History Graph

Search for Another Location

Airport or City:

Trip Planner

Search our weather history database for the weather conditions in past years. The results will help you decide how hot, cold, wet, or windy it might be!

Date:

Astronomy

May. 16, 2013 Rise Set
Actual Time 5:33 AM EDT 8:07 PM EDT
Civil Twilight 5:02 AM EDT 8:38 PM EDT
Nautical Twilight 4:22 AM EDT 9:18 PM EDT
Astronomical Twilight 3:38 AM EDT 10:03 PM EDT
Moon 11:05 AM EDT (5/16) 12:25 AM EDT (5/16)
Length of Visible Light 15h 36m
Length of Day
14h 33m
Waxing Crescent, 35% of the Moon is Illuminated
May 16
Waxing Crescent
May 18
First Quarter
May 25
Full
May 31
Last Quarter
Jun 8
New

Hourly Weather History & Observations

Time (EDT) Temp. Dew Point Humidity Pressure Visibility Wind Dir Wind Speed Gust Speed Precip Events Conditions
12:53 AM 50.0 °F 48.0 °F 93% 29.73 in 7.0 mi Calm Calm - N/A   Clear
1:53 AM 46.9 °F 45.0 °F 93% 29.73 in 4.0 mi Calm Calm - N/A   Clear
2:53 AM 46.9 °F 44.1 °F 90% 29.73 in 5.0 mi WSW 3.5 mph - N/A   Clear
3:53 AM 48.0 °F 45.0 °F 89% 29.73 in 4.0 mi Calm Calm - N/A   Clear
4:16 AM 46.4 °F 44.6 °F 93% 29.73 in 1.8 mi Calm Calm - N/A   Clear
4:26 AM 44.6 °F 42.8 °F 93% 29.73 in 3.0 mi Calm Calm - N/A   Clear
4:44 AM 44.6 °F 42.8 °F 93% 29.73 in 4.0 mi Calm Calm - N/A   Partly Cloudy
4:53 AM 44.1 °F 42.1 °F 93% 29.73 in 6.0 mi Calm Calm - N/A   Partly Cloudy
5:45 AM 44.6 °F 42.8 °F 93% 29.75 in 2.5 mi Calm Calm - N/A   Clear
5:53 AM 44.1 °F 42.1 °F 93% 29.75 in 4.0 mi Calm Calm - N/A   Clear
6:53 AM 50.0 °F 46.9 °F 89% 29.76 in 3.0 mi Calm Calm - N/A   Clear
7:53 AM 57.0 °F 51.1 °F 81% 29.79 in 8.0 mi Calm Calm - N/A   Clear
8:53 AM 64.9 °F 48.0 °F 54% 29.79 in 10.0 mi WSW 5.8 mph - N/A   Clear
9:53 AM 68.0 °F 46.0 °F 45% 29.80 in 10.0 mi WSW 8.1 mph - N/A   Clear
10:53 AM 72.0 °F 37.9 °F 29% 29.78 in 10.0 mi NW 5.8 mph - N/A   Clear
11:53 AM 75.0 °F 37.9 °F 26% 29.77 in 10.0 mi NW 6.9 mph - N/A   Clear
12:53 PM 77.0 °F 42.1 °F 29% 29.76 in 10.0 mi Variable 4.6 mph - N/A   Clear
1:53 PM 78.1 °F 43.0 °F 29% 29.74 in 10.0 mi WNW 8.1 mph 20.7 mph N/A   Clear
2:53 PM 80.1 °F 43.0 °F 27% 29.73 in 10.0 mi West 8.1 mph 17.3 mph N/A   Partly Cloudy
3:53 PM 81.0 °F 41.0 °F 24% 29.72 in 10.0 mi WNW 9.2 mph 24.2 mph N/A   Scattered Clouds
4:53 PM 80.1 °F 39.9 °F 24% 29.72 in 10.0 mi WNW 9.2 mph 20.7 mph N/A   Partly Cloudy
5:53 PM 80.1 °F 37.9 °F 22% 29.72 in 10.0 mi WNW 11.5 mph 20.7 mph N/A   Partly Cloudy
6:53 PM 78.1 °F 36.0 °F 22% 29.73 in 10.0 mi Variable 4.6 mph - N/A   Clear
7:53 PM 73.9 °F 36.0 °F 25% 29.75 in 10.0 mi West 5.8 mph - N/A   Clear
8:53 PM 63.0 °F 44.1 °F 50% 29.77 in 10.0 mi Calm Calm - N/A   Clear
9:53 PM 59.0 °F 45.0 °F 60% 29.81 in 10.0 mi SW 3.5 mph - N/A   Clear
10:53 PM 55.0 °F 45.0 °F 69% 29.82 in 10.0 mi Calm Calm - N/A   Clear
11:53 PM 53.1 °F 45.0 °F 74% 29.84 in 10.0 mi Calm Calm - N/A   Clear